Regional Weather Roundup
Issued by NWS

Home | Current Version | Previous Version | Graphics & Text | Print | Product List | Glossary On
Versions: 1 2 3 4 5 6 7 8 9 10 11 12 13 14 15 16 17 18 19 20 21 22 23 24 25 26 27 28 29 30 31 32 33 34 35 36 37 38 39 40 41 42 43 44 45 46 47 48 49 50
000
ASUS43 KLMK 280210
RWRKY
KENTUCKY REGIONAL WEATHER ROUNDUP
NATIONAL WEATHER SERVICE LOUISVILLE KY
1000 PM EDT TUE SEP 27 2016

NOTE "FAIR" INDICATES FEW OR NO CLOUDS BELOW 12,000 FEET
WITH NO SIGNIFICANT WEATHER AND/OR OBSTRUCTIONS TO VISIBILITY.

KYZ001>023-026-027-061>063-070>075-280300-
WESTERN AND SOUTH CENTRAL KENTUCKY

CITY           SKY/WX    TMP DP  RH WIND       PRES   REMARKS
PADUCAH        CLEAR     65  49  56 SW6       29.90S
HENDERSON      CLEAR     61  48  63 SW5       29.88R
OWENSBORO      CLEAR    N/A N/A N/A VRB6      29.89S
HOPKINSVILLE   CLEAR     63  50  62 SW3       29.93R
BOWLING GREEN  CLEAR     60  50  69 CALM      29.93R
GLASGOW        CLEAR     54  52  92 CALM      29.93S
$$

KYZ024-025-028>034-038-045-046-053-280300-
NORTH CENTRAL KENTUCKY

CITY           SKY/WX    TMP DP  RH WIND       PRES   REMARKS
LOUISVILLE/SDF CLEAR     67  46  47 S7        29.89S
LOUISVILLE/LOU CLEAR     65  48  54 SE5       29.90R
FORT KNOX      CLEAR     58  49  71 S2        29.89S
$$

KYZ035>037-039>044-047>052-055>060-089>105-280300-
NORTHEAST KENTUCKY

CITY           SKY/WX    TMP DP  RH WIND       PRES   REMARKS
LEXINGTON      CLEAR     61  43  51 S7        29.93R
COVINGTON      CLEAR     58  50  75 S6        29.88R
FRANKFORT      CLEAR     59  46  62 SW5       29.91R
$$

KYZ054-064>069-076>088-106>120-280300-
SOUTHEAST KENTUCKY

CITY           SKY/WX    TMP DP  RH WIND       PRES   REMARKS
JACKSON        CLEAR     62  42  47 CALM      29.95R
LONDON         CLEAR     55  47  74 CALM      29.95R
SOMERSET       CLEAR     54  46  76 CALM      29.96S
MIDDLESBORO    CLEAR     54  50  87 CALM      29.97R
MONTICELLO     CLEAR     49  46  90 CALM      29.97R
$$




USA.gov is the U.S. government's official web portal to all federal, state and local government web resources and services.